[[{"header":{"parameterUnit":"m.s-1","parameterCategory":1,"la1":30.2991,"la2":30.254,"lo1":-89.0895,"lo2":-89.0444,"dy":0.0017,"dx":0.0017,"nx":28,"ny":28,"refTime":"2024-02-03T03:00:00:Z","depth":0,"parameterNumber":2,"parameterNumberName":"U-component_of_WINDS"},"data":[0,0,0,0,0,0,0,0,0,0,0,0,0,0,0,0,0,0,0,0,0,0,0,0,0,0,0,0,0,0,0,0,0,0,0,0,0,0,0,0,0,0,0,0,0,0,0,0,0,0,0,0,0,0,0,0,0,0,-8.2347,-8.2347,0,-8.2366,-8.2366,-8.2366,-8.2276,-8.2273,-8.2271,-8.2268,-8.2285,-8.2288,-8.229,0,0,0,0,0,0,0,0,0,0,0,0,0,-8.2229,-8.2232,-8.2347,-8.2347,-8.2347,-8.2366,-8.2366,-8.2366,-8.2277,-8.2273,-8.227,-8.2267,-8.2284,-8.2287,-8.2291,0,0,0,0,0,0,0,0,0,0,0,0,0,-8.2268,-8.2233,-8.2347,-8.2305,-8.2301,-8.2366,-8.2366,-8.2366,-8.2277,-8.2273,-8.2269,-8.2266,-8.2283,-8.2287,-8.2291,-8.2396,0,0,-8.2304,-8.2306,0,0,0,0,0,0,0,0,-8.2266,-8.2272,-8.2311,-8.2308,-8.2304,-8.2315,-8.2331,-8.2376,-8.2278,-8.2286,-8.2268,-8.2264,-8.2298,-8.23,-8.2313,-8.2397,-8.2398,-8.2305,-8.2307,-8.2309,-8.231,0,0,0,0,0,0,0,-8.2263,-8.2271,-8.2354,-8.2311,-8.2307,-8.2284,-8.2285,-8.2339,-8.2313,-8.2285,-8.2279,-8.2282,-8.2295,-8.2309,-8.2312,-8.2398,-8.2305,-8.2308,-8.2311,-8.2313,-8.2569,-8.2573,0,0,0,0,0,0,-8.2266,-8.2269,-8.2353,-8.2355,-8.2275,-8.2289,-8.2291,-8.2315,-8.2313,-8.2309,-8.2286,-8.2278,-8.2303,-8.2307,-8.2313,-8.2434,-8.2309,-8.2313,-8.2316,-8.2565,-8.257,-8.2574,0,0,0,0,0,0,-8.2264,-8.2275,-8.2353,-8.231,-8.2318,-8.2296,-8.2324,-8.2317,-8.2331,-8.2313,-8.2308,-8.2304,-8.23,-8.2306,-8.2376,-8.2433,-8.2315,-8.2319,-8.256,-8.2566,-8.2572,-8.2679,0,0,0,0,0,0,-8.2261,-8.2275,-8.2314,-8.2312,-8.2321,-8.2417,-8.2327,-8.2321,-8.2339,-8.2329,-8.2329,-8.2325,-8.2298,-8.237,-8.238,-8.2437,-8.2322,-8.2554,-8.2563,-8.257,-8.267,-8.2688,-8.2703,0,0,0,0,0,-8.2257,-8.2343,-8.2317,-8.2328,-8.2371,-8.242,-8.2425,-8.2392,-8.2344,-8.2383,-8.2372,-8.2325,-8.2427,-8.2378,-8.2389,-8.2448,-8.2551,-8.256,-8.257,-8.2662,-8.2684,-8.2703,0,0,0,0,0,0,-8.2351,-8.2342,-8.2313,-8.24,-8.2412,-8.2405,-8.2453,-8.2417,-8.2441,-8.2431,-8.2389,-8.239,-8.2466,-8.2464,-8.2411,-8.2549,-8.248,-8.2492,-8.2547,-8.2568,-8.2584,-8.2581,-8.2326,0,0,0,0,0,-8.2382,-8.2424,-8.2414,-8.2492,-8.25,-8.2476,-8.2496,-8.2471,-8.248,-8.2484,-8.2478,-8.2489,-8.2523,-8.2546,-8.2576,-8.2671,-8.2669,-8.2717,-8.2734,-8.2747,-8.2757,-8.2806,-8.2827,-8.2606,-8.2606,-8.2605,0,0,-8.2446,-8.2446,-8.2475,-8.2511,-8.2517,-8.256,-8.2481,-8.253,-8.2561,-8.2491,-8.2556,-8.2553,-8.2562,-8.2645,-8.2681,-8.2645,-8.2818,-8.2759,-8.2771,-8.2773,-8.2818,-8.2839,-8.2857,-8.2612,-8.2611,-8.261,0,0,-8.2584,-8.259,-8.2655,-8.2663,-8.2674,-8.2659,-8.2675,-8.2674,-8.2669,-8.2735,-8.2683,-8.272,-8.278,-8.2788,-8.28,-8.2945,-8.2902,-8.2957,-8.3042,-8.3091,-8.3108,-8.3123,-8.3173,-8.3191,-8.2967,-8.2968,-8.2968,0,-8.2661,-8.2725,-8.2693,-8.2746,-8.2763,-8.2705,-8.277,-8.2779,-8.2799,-8.2812,-8.2773,-8.2847,-8.2849,-8.2932,-8.2968,-8.2981,-8.2996,-8.2954,-8.3109,-8.3123,-8.3137,-8.3184,-8.3203,-8.2974,-8.2973,-8.2973,-8.2972,0,-8.2819,-8.2865,-8.2917,-8.2939,-8.2962,-8.3021,-8.2996,-8.3024,-8.2997,-8.2986,-8.3053,-8.3054,-8.3083,-8.3102,-8.3076,-8.3182,-8.316,-8.3116,-8.3044,-8.3165,-8.3208,-8.3226,-8.2983,-8.2981,-8.2979,-8.2977,0,0,-8.3012,-8.3018,-8.3037,-8.3047,-8.3056,-8.309,-8.3148,-8.3178,-8.3201,-8.3218,-8.3263,-8.3317,-8.3277,-8.3291,-8.3265,-8.3308,-8.3421,-8.3259,-8.3258,-8.3286,-8.3536,-8.3566,-8.3588,-8.3395,-8.3398,-8.3401,-8.3534,0,-8.3146,-8.3243,-8.3217,-8.3314,-8.3355,-8.3302,-8.3351,-8.3362,-8.3354,-8.3387,-8.3377,-8.3415,-8.336,-8.3368,-8.3409,-8.3399,-8.347,-8.3389,-8.3434,-8.3436,-8.343,-8.3611,-8.3643,-8.3769,-8.3551,-8.3554,-8.3556,0,-8.3313,-8.3338,-8.344,-8.3443,-8.3459,-8.3504,-8.353,-8.3564,-8.3575,-8.3566,-8.3583,-8.355,-8.3605,-8.3537,-8.3612,-8.3557,-8.3575,-8.3573,-8.3577,-8.3577,-8.3501,-8.3612,-8.3808,-8.3826,-8.3583,-8.358,-8.3579,0,-8.3441,-8.35,-8.3568,-8.3579,-8.3585,-8.3618,-8.3622,-8.3629,-8.365,-8.3673,-8.3685,-8.3714,-8.3729,-8.3752,-8.3727,-8.3681,-8.3805,-8.3735,-8.3797,-8.3798,-8.3822,-8.382,-8.4021,-8.384,-8.384,-8.3839,-8.3839,0,-8.359,-8.3654,-8.3626,-8.3668,-8.3737,-8.3707,-8.3777,-8.3774,-8.3782,-8.3822,-8.3779,-8.3816,-8.3783,-8.3818,-8.3799,-8.3863,-8.3871,-8.3864,-8.3857,-8.3866,-8.3866,-8.3873,-8.3863,-8.3844,-8.3843,-8.3842,-8.3841,0,-8.3743,-8.3727,-8.3798,-8.3799,-8.3801,-8.3852,-8.3853,-8.3891,-8.3881,-8.3932,-8.3942,-8.3925,-8.3964,-8.3943,-8.3983,-8.397,-8.4052,-8.4036,-8.4048,-8.4043,-8.4105,-8.4098,-8.4314,-8.434,-8.4145,-8.4147,-8.4149,0,-8.3837,-8.3885,-8.3893,-8.3917,-8.3925,-8.3964,-8.3985,-8.3958,-8.3981,-8.3999,-8.4035,-8.4071,-8.4097,-8.4162,-8.4153,-8.4183,-8.4165,-8.4239,-8.4169,-8.4176,-8.4163,-8.4159,-8.4163,-8.4251,-8.4254,-8.4255,-8.4257,0,-8.4007,-8.3997,-8.403,-8.4061,-8.4088,-8.411,-8.4128,-8.4151,-8.4124,-8.4153,-8.4193,-8.4214,-8.4255,-8.4291,-8.4317,-8.432,-8.4284,-8.428,-8.4295,-8.4302,-8.4307,-8.4302,-8.4083,-8.4274,-8.4272,-8.4271,-8.427,-8.4269,-8.4131,-8.4171,-8.4183,-8.4221,-8.4233,-8.4252,-8.4288,-8.4284,-8.4317,-8.4349,-8.4332,-8.4378,-8.4389,-8.4421,-8.4429,-8.4464,-8.4435,-8.4458,-8.4463,-8.4468,-8.4475,-8.4305,-8.447,-8.4469,-8.4469,-8.4468,-8.4468,0,-8.4296,-8.4302,-8.4337,-8.4366,-8.4396,-8.4363,-8.4382,-8.4408,-8.445,-8.4465,-8.4493,-8.4539,-8.4573,-8.4569,-8.46,-8.4629,-8.4613,-8.4638,-8.4633,-8.4634,-8.4501,-8.4483,-8.465,-8.465,-8.465,-8.465,-8.465,-8.465,-8.4385,-8.445,-8.4443,-8.4514,-8.4519,-8.4565,-8.4579,-8.4596,-8.4607,-8.4661,-8.469,-8.4688,-8.4694,-8.4726,-8.4756,-8.4754,-8.4766,-8.4796,-8.4787,-8.4662,-8.4644,-8.4627,-8.461,-8.48,-8.48,-8.4917,-8.4918,-8.4919]},{"header":{"parameterUnit":"m.s-1","parameterCategory":1,"la1":30.2991,"la2":30.254,"lo1":-89.0895,"lo2":-89.0444,"dy":0.0017,"dx":0.0017,"nx":28,"ny":28,"refTime":"2024-02-03T03:00:00:Z","depth":0,"parameterNumber":3,"parameterNumberName":"V-component_of_WINDS"},"data":[0,0,0,0,0,0,0,0,0,0,0,0,0,0,0,0,0,0,0,0,0,0,0,0,0,0,0,0,0,0,0,0,0,0,0,0,0,0,0,0,0,0,0,0,0,0,0,0,0,0,0,0,0,0,0,0,0,0,4.8703,4.8703,0,4.8707,4.8707,4.8708,4.8652,4.865,4.8649,4.8647,4.865,4.8652,4.8653,0,0,0,0,0,0,0,0,0,0,0,0,0,4.8648,4.8649,4.8703,4.8703,4.8703,4.8707,4.8707,4.8708,4.8652,4.865,4.8648,4.8647,4.865,4.8652,4.8653,0,0,0,0,0,0,0,0,0,0,0,0,0,4.8664,4.8649,4.8703,4.8676,4.8674,4.8707,4.8707,4.8708,4.8653,4.865,4.8648,4.8646,4.8649,4.8651,4.8654,4.8713,0,0,4.866,4.8661,0,0,0,0,0,0,0,0,4.8663,4.8666,4.868,4.8678,4.8676,4.8677,4.8689,4.8709,4.8653,4.8661,4.8647,4.8645,4.8661,4.8662,4.8668,4.8713,4.8713,4.8661,4.8662,4.8663,4.8664,0,0,0,0,0,0,0,4.8662,4.8665,4.8705,4.8681,4.8678,4.8664,4.8664,4.8692,4.8673,4.866,4.8656,4.8657,4.8659,4.8666,4.8667,4.8713,4.8661,4.8663,4.8664,4.8665,4.8809,4.8811,0,0,0,0,0,0,4.8664,4.8665,4.8705,4.8705,4.8664,4.8667,4.8667,4.8679,4.8673,4.867,4.8659,4.8655,4.8663,4.8665,4.8667,4.8737,4.8663,4.8665,4.8666,4.8806,4.8809,4.8812,0,0,0,0,0,0,4.8664,4.8669,4.8705,4.8684,4.8687,4.867,4.8684,4.868,4.8686,4.8672,4.8669,4.8669,4.8661,4.8664,4.8702,4.8736,4.8666,4.8668,4.8803,4.8807,4.881,4.8876,0,0,0,0,0,0,4.8662,4.8669,4.8691,4.8685,4.8689,4.874,4.8686,4.8682,4.8691,4.8685,4.8681,4.8678,4.866,4.8699,4.8705,4.8738,4.867,4.88,4.8805,4.8809,4.8871,4.8882,4.8891,0,0,0,0,0,4.866,4.8708,4.8692,4.8697,4.8716,4.8742,4.8744,4.8722,4.8694,4.8716,4.8707,4.8678,4.8732,4.8704,4.8709,4.8744,4.8798,4.8803,4.8809,4.8867,4.888,4.8891,0,0,0,0,0,0,4.8717,4.8707,4.8689,4.8736,4.8741,4.8732,4.8759,4.8737,4.8748,4.8742,4.8715,4.8714,4.8757,4.8754,4.8723,4.8802,4.876,4.8767,4.8802,4.8814,4.8824,4.8824,4.8672,0,0,0,0,0,4.8736,4.8758,4.8747,4.879,4.8793,4.8777,4.8787,4.877,4.8773,4.8774,4.8768,4.8772,4.879,4.8802,4.8817,4.8871,4.887,4.8897,4.8908,4.8916,4.8922,4.8951,4.8964,4.883,4.883,4.883,0,0,4.8773,4.877,4.8786,4.8802,4.8803,4.8827,4.8778,4.8804,4.8822,4.8778,4.8814,4.881,4.8812,4.8859,4.8879,4.8858,4.8959,4.8923,4.893,4.8931,4.8958,4.8971,4.8982,4.8834,4.8833,4.8833,0,0,4.8854,4.8854,4.889,4.8893,4.8896,4.8885,4.8894,4.889,4.8886,4.8922,4.889,4.891,4.8941,4.8944,4.895,4.9035,4.9009,4.9041,4.9093,4.9122,4.9133,4.9142,4.9173,4.9184,4.9047,4.9048,4.9048,0,4.89,4.8934,4.8912,4.8941,4.895,4.8912,4.895,4.8953,4.8961,4.8968,4.8944,4.8983,4.8982,4.903,4.9051,4.9057,4.9066,4.9041,4.9133,4.9142,4.915,4.918,4.9191,4.9051,4.9051,4.9051,4.905,0,4.8992,4.9016,4.9045,4.9055,4.9067,4.91,4.9083,4.9098,4.908,4.9072,4.911,4.9108,4.9123,4.9133,4.9116,4.9178,4.9165,4.9138,4.9095,4.9167,4.9194,4.9205,4.9057,4.9056,4.9054,4.9053,0,0,4.9106,4.9105,4.9116,4.9121,4.9123,4.9142,4.9174,4.9189,4.9203,4.921,4.9236,4.9265,4.924,4.9247,4.923,4.9256,4.9324,4.9225,4.9225,4.9244,4.9394,4.9415,4.9428,4.9308,4.931,4.9311,4.9394,0,4.9185,4.924,4.9222,4.9278,4.9301,4.9267,4.9295,4.93,4.9293,4.9312,4.9304,4.9325,4.929,4.9294,4.9318,4.9311,4.9354,4.9305,4.9332,4.9333,4.9332,4.9442,4.9464,4.9542,4.9404,4.9406,4.9407,0,4.9284,4.9297,4.9356,4.9356,4.9365,4.939,4.9404,4.9422,4.9427,4.9421,4.943,4.9408,4.944,4.9398,4.9442,4.9409,4.9419,4.9417,4.942,4.9421,4.9374,4.9447,4.9566,4.9578,4.9424,4.9422,4.9421,0,4.9363,4.9395,4.9435,4.944,4.944,4.9459,4.946,4.9463,4.9474,4.9486,4.9494,4.9509,4.9518,4.953,4.9514,4.9484,4.956,4.9516,4.9556,4.9556,4.9572,4.9572,4.9696,4.9579,4.9579,4.9579,4.9579,0,4.9453,4.9491,4.9471,4.9495,4.9536,4.9515,4.9557,4.9554,4.9557,4.958,4.9551,4.9574,4.9551,4.9571,4.9558,4.9597,4.9601,4.9597,4.9593,4.9599,4.96,4.9605,4.9599,4.9582,4.9581,4.9581,4.958,0,4.9548,4.9536,4.9577,4.9575,4.9576,4.9606,4.9604,4.9627,4.9619,4.9649,4.9655,4.9643,4.9665,4.965,4.9673,4.9664,4.9715,4.9704,4.9714,4.9711,4.9751,4.9748,4.9883,4.99,4.9773,4.9774,4.9775,0,4.9606,4.9635,4.9636,4.9651,4.9654,4.9677,4.9689,4.967,4.9683,4.9692,4.9714,4.9734,4.975,4.9788,4.9781,4.9798,4.9787,4.9833,4.9789,4.9795,4.9788,4.9787,4.979,4.9842,4.9843,4.9844,4.9845,0,4.9712,4.9705,4.9723,4.9741,4.9757,4.9769,4.9779,4.9792,4.9773,4.979,4.9813,4.9825,4.985,4.987,4.9885,4.9886,4.9863,4.986,4.987,4.9876,4.9881,4.988,4.9738,4.9856,4.9855,4.9854,4.9854,4.9853,4.979,4.9814,4.982,4.9842,4.9848,4.9859,4.9881,4.9876,4.9896,4.9915,4.9902,4.993,4.9935,4.9953,4.9957,4.9979,4.996,4.9975,4.9978,4.9982,4.9988,4.9878,4.9982,4.9981,4.9981,4.9981,4.998,0,4.9894,4.9897,4.9918,4.9934,4.9952,4.9929,4.994,4.9956,4.9982,4.9989,5.0005,5.0033,5.0054,5.0049,5.0068,5.0086,5.0076,5.0092,5.009,5.0091,5.0004,4.9993,5.01,5.01,5.01,5.01,5.01,5.01,4.9951,4.9991,4.9985,5.0029,5.003,5.0059,5.0067,5.0077,5.0083,5.0115,5.0133,5.013,5.0133,5.0152,5.017,5.0168,5.0176,5.0196,5.019,5.0109,5.0097,5.0086,5.0076,5.0198,5.0198,5.0276,5.0276,5.0277]}]]